Location: Ottawa
(45.4167°N, 75.7000°W)
Time: 05:37:04
(UTC-04:00)

OTV 5 (USA 277) - Pass Details

Date: 11 October 2017
Orbit: 404 x 417 km, 43.0° (Epoch: 07 September)

Event Time Altitude Azimuth Distance (km) Brightness Sun altitude
Rises 18:52:44 0° 215° (SW) 2,344 ? -5.8°
Reaches altitude 10° 18:55:19 10° 194° (SSW) 1,485 ? -6.3°
Maximum altitude 18:57:36 17° 152° (SSE) 1,128 ? -6.7°
Drops below altitude 10° 18:59:53 10° 109° (ESE) 1,489 ? -7.1°
Enters shadow 19:00:17 - 104° (ESE) 1,605 ? -7.2°
